{"data":{"norad_id":61017,"intl_designator":"2024-159G","name":"GEESAT-3 07","alt_names":[],"object_type":"PAYLOAD","status":"ACTIVE","operator":null,"country":"PRC","launch_date":"2024-09-05","launch_site_code":"TAISC","launch_vehicle":null,"mission":null,"orbit_class":"UNKNOWN","rcs_meters":null,"size_class":null,"mass_kg":null,"dimensions":null,"purposes":[],"wikipedia_slug":null,"has_3d_model":false,"image_url":null,"decayed_at":null,"tle_current":{"epoch":"2026-05-25T05:02:52.200096Z","epoch_age_seconds":54183,"freshness":"FRESH","line1":"1 61017U 24159G   26145.21032639  .00001308  00000+0  18190-3 0  9993","line2":"2 61017  49.9927 189.5313 0011787 303.6242  56.3572 14.84150840 92735","mean_motion":14.8415084,"eccentricity":0.0011787,"inclination_deg":49.9927,"raan_deg":189.5313,"arg_perigee_deg":303.6242,"mean_anomaly_deg":56.3572,"bstar":0.0001819,"rev_number":9273,"period_min":97.025178384159,"perigee_km":608.00820926337,"apogee_km":624.49678306163,"semimajor_km":6994.3894961625,"source":"CELESTRAK","updated_at":"2026-05-25T13:38:02.277607Z"}}}